Flag for Nicaragua Weather past 2 weeks in Masaya, Nicaragua

Now
79 °F

Passing clouds.


Feels Like: 82 °F
Forecast: 77 / 89 °F
Wind: 5 mph from East

Location: Managua A. C. Sandino

Current Time: Jul 25, 2014 at 1:28:47 AM

Latest Report: Jul 25, 2014 at 1:00 AM


Visibility: N/A

Pressure: 29.83 "Hg

Humidity: 79%

Dew point: 72 °F

Location of MasayaLocation

Historic Weather in Masaya — Graph

°F

Masaya temperature yesterday

Maximum temperature yesterday: 95 °F (at 2:00 PM)
Minimum temperature yesterday: 77 °F (at 6:00 AM)
Average temperature yesterday: 86 °F

Past Weeks' High & Low Weather Summary

 TemperatureHumidityPressure
High95 °F (Jul 12, 2:00 PM)89% (Jul 14, 5:00 AM)29.92 "Hg (Jul 14, 5:00 AM)
Low73 °F (Jul 10, 5:00 AM)39% (Jul 20, 2:00 PM)29.74 "Hg (Jul 12, 3:00 PM)
Average85 °F64%29.84 "Hg
* Reported Jul 10 3:00 AM — Midnight between Jul 24 and Jul 25, Masaya, Weather by CustomWeather, © 2014

Note: Actual official high and low records may vary slightly from our data, if they occured in-between our weather recording intervals... More about our weather records

Advertising

Masaya weather history for previous 24 hours

 ConditionsComfort  
Time TempWeatherWind HumidityBarometerVisibility
12:00 AM
Jul 25
81 °FPassing clouds.No wind74%29.86 "HgN/A
11:00 PM
Jul 24
82 °FPassing clouds.9 mph70%29.86 "HgN/A
10:00 PM82 °FPassing clouds.12 mph70%29.86 "HgN/A
9:00 PM82 °FPassing clouds.14 mph70%29.86 "HgN/A
8:00 PM82 °FPassing clouds.9 mph70%29.83 "HgN/A
7:00 PM84 °FPassing clouds.14 mph66%29.80 "HgN/A
6:00 PM88 °FPassing clouds.16 mph70%29.80 "HgN/A
5:00 PM90 °FPassing clouds.18 mph52%29.74 "HgN/A
4:00 PM90 °FPassing clouds.16 mph55%29.74 "HgN/A
3:00 PM91 °FPassing clouds.14 mph49%29.74 "HgN/A
2:00 PM95 °FScattered clouds.21 mph41%29.77 "HgN/A
1:00 PM93 °FScattered clouds.14 mph44%29.77 "HgN/A
12:00 PM91 °FScattered clouds.14 mph46%29.83 "HgN/A
11:00 AM90 °FScattered clouds.N/A49%29.83 "HgN/A
10:00 AM88 °FScattered clouds.14 mph55%29.83 "HgN/A
9:00 AM88 °FPassing clouds.18 mph55%29.83 "HgN/A
8:00 AM84 °FPassing clouds.14 mph66%29.86 "HgN/A
7:00 AM81 °FPassing clouds.12 mph74%29.86 "HgN/A
6:00 AM77 °FPassing clouds.5 mph83%29.86 "HgN/A
5:00 AM79 °FPassing clouds.7 mph79%29.83 "HgN/A
4:00 AM79 °FPassing clouds.7 mph84%29.83 "HgN/A
Weather by CustomWeather, © 2014

See weather overviewHow to use our weather pages